Simultaneous Nadir Overpasses (SNOs) Predictions

Prediction of SNOs between GOES-16 and AQUA Satellite Orbit:

Table of predicted SNOs for the next 14.0 days since TLE Epoch: 7/24/2021
Index Date Time (GOES-16) GOES-16 Lat,Lon AQUA Lat,Lon Distance(km) Time Diff (sec)
1 07/24/2021 06:50:27 -0.10, -75.21 0.57, -78.34 356.01 80
2 07/26/2021 06:35:36 -0.10, -75.22 -0.05, -75.38 18.50 80
3 07/28/2021 06:23:25 -0.10, -75.24 -0.68, -72.43 320.23 80
4 07/28/2021 18:44:50 0.11, -75.25 -0.39, -77.62 269.79 80
5 07/30/2021 18:35:19 0.11, -75.28 0.25, -74.67 69.81 80
6 08/01/2021 18:23:08 0.11, -75.32 0.89, -71.72 409.85 80
7 08/02/2021 06:44:23 -0.12, -75.33 0.23, -76.87 175.16 80
8 08/04/2021 06:29:32 -0.13, -75.37 -0.41, -73.91 165.19 80
9 08/04/2021 18:50:56 0.14, -75.38 -0.65, -79.11 425.03 80
10 08/06/2021 18:38:45 0.14, -75.42 0.00, -76.16 84.23 80
